Вернуться в каталог

STARLINK-31838

АктивенСвязьVLEO
NORAD 60130·PAYLOAD·🇺🇸 United States

Запущен Jun 24, 2024 с Vandenberg Space Force Base

Loading…

Ближайшие Пролёты (ближайшие 24 часа)

TLE

СвежийSource: CelesTrak SupGP

Эпоха: Sep 15, 2026, 02:44 UTC

1 60130C 24118T   26258.11437500 -.00084193  00000+0 -27067-2 0  2588
2 60130  53.1574 225.4422 0001379  91.8992  70.5844 15.31752419    13

Отслеживайте STARLINK-31838 в реальном времени с AllMySat

Download on the App Store